CAPE
0 314 638 1263 1920 564 88 102 90 74 121 156 103 66 130 253 293 257 155 404 101 175 475 882 1463 998 776 773 957 1433 1627 1663 1593 1716 1711 1754 1919 1890 1979 1985 1895 1907 1830 2037 1896 1967 1917 1837 1934
38 554 662 898 911 72 114 109 94 157 188 284 255 274 82 148 171 219 176 86 132 146 369 614 1661 1487 974 1073 1090 1847 1701 1669 1775 1821 1658 1721 1795 1987 1985 1405 1535 1746 1760 1789 2048 2031 2096 1967 1919
200 241 1029 761 282 154 98 125 145 142 349 415 376 361 256 175 185 287 170 113 273 268 522 1242 1692 2009 1631 1731 1529 1847 1759 1749 1798 1755 952 1143 1910 2067 1634 1267 1295 1528 1868 1684 1806 1971 1973 1943 1992
144 803 680 475 201 148 98 144 184 203 307 386 245 184 148 161 239 244 173 141 289 743 880 1523 1884 2154 1928 1835 1827 1782 1840 1612 1714 1992 2102 1925 1952 2177 2027 1737 1887 1824 1576 2087 2075 1844 1820 1501 1585
146 803 622 334 195 134 148 206 221 222 362 286 110 309 203 354 248 234 372 542 592 708 873 1093 1915 2209 1979 1793 1913 1874 1963 2088 2138 2081 1984 1729 2049 1711 1768 1889 1840 1807 1874 2171 1755 1267 1019 1358 1501
459 707 426 224 154 195 265 289 270 295 324 155 182 337 498 289 225 299 372 553 488 434 807 885 1792 2018 1882 1953 1711 1813 1832 1699 1932 1840 1909 1778 1894 1998 1509 1919 1845 1658 2047 2194 2278 1751 1182 887 1166
410 333 147 145 181 265 347 233 375 204 167 132 132 288 390 231 260 262 304 336 339 422 578 682 981 1779 1934 1912 1835 1837 1651 1993 1729 1917 1981 1993 1988 1507 1378 1877 1770 1818 1935 2019 1973 2011 1699 1357 799
768 584 206 141 121 188 313 320 217 151 208 56 240 267 279 276 199 226 281 307 617 641 780 962 586 951 1171 1322 1831 1833 1900 2042 2034 1848 1868 1825 1367 1159 1344 1575 1701 1596 1726 1682 1888 2036 1796 1666 1325
644 876 300 282 150 312 279 333 376 88 68 47 74 144 295 142 155 219 285 403 446 659 820 872 836 1582 2353 1372 1586 1997 1919 2091 1853 1618 1793 1748 548 895 1347 1621 1347 1240 1251 1265 1385 1537 1819 1939 1744
843 626 463 652 189 114 232 257 316 129 103 84 139 358 164 134 178 246 236 421 360 416 720 395 996 946 1210 1034 1747 1756 1656 1801 1391 805 1019 669 1389 808 875 1702 1841 1549 1708 1723 1629 1419 1340 1707 1938
527 519 622 224 153 235 363 284 343 155 110 138 126 185 107 146 260 96 225 335 398 232 832 695 813 1622 1402 1433 1589 1558 993 802 969 940 868 690 519 856 337 802 942 713 1180 971 1361 1455 1568 897 851
607 447 347 301 164 7 6 101 269 144 201 137 68 94 111 234 289 153 186 254 236 297 620 709 966 1583 1748 1329 1038 1517 1233 764 737 933 1033 1134 623 798 565 666 885 942 471 836 1239 685 936 780 678
514 436 133 518 156 0 1 54 435 243 204 48 59 136 194 273 259 186 190 240 178 334 679 628 1506 2312 2468 1369 1710 1527 1015 962 826 1173 1166 867 697 932 899 992 905 1886 467 676 692 971 1142 836 898
412 530 740 493 172 208 0 148 790 222 119 68 57 151 207 195 168 165 103 182 206 433 652 764 1302 2288 1385 2021 1967 1207 1182 1375 1434 1369 1385 1650 1131 1286 1136 1279 1027 846 876 715 770 1419 1278 682 594
476 552 947 718 738 556 97 312 600 322 136 206 94 146 163 162 165 106 134 137 255 500 652 755 1183 1442 1610 1371 1277 1113 754 728 947 1655 1822 1507 1401 1913 1417 1100 1903 815 1506 1586 1112 1424 1137 564 344
207 443 498 802 632 428 334 324 583 360 294 273 117 129 137 146 115 162 16 71 255 520 710 824 941 1158 1596 1853 1830 1120 1499 1013 1831 1570 1530 1673 1850 1861 2459 1304 1352 1408 1712 1066 784 1065 889 635 413
56 56 154 718 832 673 496 102 223 440 341 184 115 90 107 219 209 244 73 15 132 515 673 842 1031 1720 2064 1902 1801 1955 1234 1624 1566 1873 1489 1783 1715 1894 2266 1804 1729 2625 1238 1261 1542 872 784 701 455
32 16 23 248 990 873 489 403 685 208 392 255 123 195 92 258 327 254 163 34 66 461 604 757 836 1804 1939 1458 2543 2128 1403 1470 1478 1525 2365 1799 1610 1868 2686 1660 1912 3285 1219 2409 3319 4087 1356 1334 649
0 36 24 285 718 735 560 451 734 229 109 309 316 298 84 127 243 243 216 148 101 252 511 707 980 1592 1828 1386 1172 1662 1300 1936 1718 1943 1865 1855 1732 2104 2660 1681 2160 2534 2716 2393 2012 2193 2577 2020 1165
0 1 24 256 541 551 300 389 466 663 157 102 169 422 102 95 155 343 250 142 136 264 557 780 1141 1708 2041 1417 2817 2327 2046 2075 1427 2167 1703 1719 1861 2140 2048 2883 1675 2810 1869 2919 2475 2760 2592 1189 1345
0 6 27 53 445 419 257 195 357 404 707 206 241 396 235 97 108 288 259 265 252 336 598 990 1276 1766 1842 2216 1495 2146 2677 2355 1218 1550 1500 1653 1874 2043 2162 2180 2447 2298 2986 2597 2468 2979 2715 1156 1303
0 0 0 4 92 78 332 43 362 492 427 584 256 552 462 135 125 144 269 373 249 498 473 912 1293 1695 1754 1966 2080 1789 1392 1276 1133 1450 1797 1573 1663 1805 1818 1956 2126 2491 2527 3009 1933 1714 3402 3359 2436
0 0 0 1 44 90 106 194 27 302 619 456 311 278 585 190 160 208 177 363 370 523 654 602 1542 2270 1971 2217 2463 1569 1755 1628 1908 1963 2254 1763 1799 1834 1366 1928 2051 2224 1725 2003 2729 2509 2496 2762 1656
0 0 0 18 84 92 37 76 81 252 542 559 384 420 293 191 153 161 285 393 574 475 786 713 1538 2397 1984 1705 1470 2296 2502 1729 1435 1423 1839 1580 1296 1524 1611 1672 2110 2207 2007 2026 2150 2416 2549 2840 2983
0 0 17 60 65 29 71 90 60 30 388 217 404 500 322 508 146 97 220 320 744 652 803 745 1142 1783 1461 1852 1461 1538 1700 1537 1544 1793 1220 962 1519 1184 2884 2343 2185 2028 2345 2252 2071 2347 2710 2409 2320
0 0 31 49 80 234 105 99 169 70 172 96 152 336 414 356 166 116 247 343 1116 923 771 871 1057 1519 1348 1530 1555 2123 1443 1275 1116 1631 1072 935 982 870 1953 1956 1733 1808 2003 1957 2054 1736 1568 2453 1434
12 7 4 45 43 53 212 172 168 30 39 161 160 252 98 213 277 232 219 244 867 871 867 1081 1171 1308 1176 1320 1537 1795 1619 1345 979 2341 1596 1425 1482 1115 1607 1605 1857 1817 1702 1727 2017 1687 1600 1548 1968
3 96 41 31 49 89 104 97 291 122 1 54 220 299 341 302 567 416 221 258 452 673 1054 973 1143 1270 1139 973 1121 1246 1278 1488 1425 2530 1908 1334 2473 1947 1741 1946 1724 1876 1782 1861 2575 2112 2552 1786 1571
48 23 20 63 130 83 191 374 35 66 99 439 267 227 179 107 137 305 137 334 562 812 926 1182 1196 1274 1164 1008 1739 1715 1427 1389 1490 1533 1872 2009 2138 1916 1921 2130 2184 2051 1893 1898 2584 2240 2615 2283 1875
80 55 96 114 191 21 52 179 143 266 12 515 357 203 309 249 231 417 446 368 644 1038 1013 1160 1395 1188 1120 1410 2235 1911 1593 1416 1238 1451 1228 2154 2407 2445 2655 2215 2212 2068 2045 2315 2259 2107 1718 1820 1476
CIN
-0 -179 -77 -14 -0 -9 -0 -0 -0 -0 -0 -6 -1 -1 -4 -0 -0 -0 -0 -3 -79 -50 -2 -11 -11 -13 -27 -12 -1 -0 -0 -0 -0 -0 -0 -0 -0 -0 -0 -0 -0 -0 -0 -0 -0 -0 -0 -0 -0
-152 -51 -83 -16 -1 -0 -0 -0 -1 -0 -0 -1 -0 -6 -1 -0 -10 -7 -4 -33 -25 -44 -3 -1 -4 -3 -11 -1 -0 -0 -0 -0 -0 -0 -0 -0 -0 -0 -0 -1 -0 -0 -0 -0 -0 -0 -0 -0 -0
-144 -91 -3 -0 -3 -0 -0 -1 -0 -0 -0 -6 -0 -0 -0 -0 -0 -0 -28 -31 -0 -19 -0 -3 -0 -0 -1 -1 -0 -0 -0 -0 -0 -0 -0 -0 -0 -0 -0 -6 -2 -0 -0 -0 -0 -0 -0 -0 -0
-38 -5 -53 -28 -0 -0 -0 -0 -0 -0 -0 -0 -0 -0 -0 -0 -0 -0 -7 -6 -0 -1 -5 -5 -0 -0 -0 -0 -0 -0 -0 -1 -0 -0 -0 -0 -0 -0 -0 -0 -0 -0 -0 -0 -0 -0 -0 -0 -0
-39 -0 -0 -3 -0 -0 -0 -0 -0 -0 -0 -0 -0 -0 -0 -0 -0 -0 -0 -0 -1 -0 -2 -2 -0 -0 -0 -0 -0 -0 -0 -0 -0 -0 -0 -0 -0 -0 -0 -0 -0 -0 -0 -0 -0 -0 -7 -1 -0
-0 -1 -26 -9 -0 -0 -0 -0 -0 -1 -0 -0 -0 -0 -0 -0 -0 -0 -0 -1 -0 -0 -1 -2 -1 -0 -0 -0 -1 -1 -0 -1 -0 -0 -0 -0 -0 -0 -0 -0 -0 -0 -0 -0 -0 -0 -9 -19 -11
-2 -2 -75 -0 -0 -0 -0 -0 -0 -0 -0 -0 -0 -0 -0 -0 -0 -0 -0 -2 -1 -0 -1 -0 -0 -0 -0 -0 -0 -0 -0 -0 -0 -0 -0 -0 -0 -0 -0 -0 -0 -0 -0 -0 -0 -0 -3 -9 -47
-3 -0 -0 -8 -0 -0 -5 -3 -0 -0 -0 -0 -2 -0 -0 -0 -0 -0 -0 -0 -3 -1 -6 -8 -0 -0 -0 -0 -0 -0 -0 -0 -0 -0 -0 -0 -5 -11 -6 -10 -0 -0 -2 -6 -7 -8 -13 -25 -34
-5 -1 -44 -9 -17 -1 -21 -19 -13 -0 -0 -0 -0 -0 -0 -16 -0 -0 -0 -0 -0 -2 -4 -8 -19 -2 -10 -0 -0 -0 -0 -1 -9 -10 -10 -27 -0 -0 -2 -7 -5 -13 -19 -21 -26 -30 -40 -38 -59
-0 -15 -4 -14 -72 -46 -6 -11 -23 -1 -0 -0 -0 -0 -17 -10 -0 -0 -0 -0 -0 -0 -10 -100 -5 -0 -1 -0 -0 -0 -3 -1 -2 -0 -0 -0 -1 -8 -0 -4 -14 -22 -24 -30 -42 -73 -81 -72 -12
-24 -18 -0 -35 -60 -60 -39 -7 -38 -0 -3 -0 -0 -1 -6 -1 -0 -0 -0 -0 -0 -0 -2 -1 -1 -9 -3 -2 -2 -0 -0 -0 -0 -0 -1 -1 -4 -2 -0 -13 -15 -23 -48 -14 -43 -38 -14 -2 -2
-1 -3 -14 -10 -36 -70 -65 -81 -0 -1 -21 -1 -0 -1 -0 -0 -0 -4 -1 -0 -0 -0 -0 -0 -0 -1 -2 -0 -0 -4 -5 -0 -0 -0 -0 -2 -0 -0 -0 -0 -3 -3 -1 -3 -0 -0 -0 -0 -1
-5 -9 -53 -0 -3 -1 -3 -30 -55 -0 -2 -0 -0 -0 -0 -0 -0 -0 -3 -0 -0 -0 -0 -0 -1 -11 -4 -0 -4 -1 -0 -0 -1 -0 -1 -0 -0 -1 -0 -1 -1 -0 -0 -0 -0 -0 -1 -0 -0
-7 -0 -0 -0 -0 -0 -0 -2 -11 -0 -6 -0 -0 -0 -0 -0 -0 -0 -0 -0 -0 -0 -0 -0 -0 -8 -0 -1 -1 -1 -0 -4 -2 -28 -0 -0 -0 -0 -0 -0 -0 -0 -0 -0 -1 -1 -0 -0 -13
-0 -0 -0 -2 -0 -1 -4 -1 -0 -0 -5 -0 -0 -0 -0 -2 -1 -0 -0 -1 -0 -0 -0 -0 -0 -0 -0 -0 -0 -0 -1 -0 -0 -12 -0 -0 -0 -0 -0 -0 -6 -0 -0 -0 -1 -3 -1 -0 -33
-19 -1 -1 -1 -0 -9 -14 -1 -9 -11 -0 -0 -2 -0 -0 -0 -0 -0 -0 -3 -0 -0 -0 -1 -0 -0 -0 -2 -0 -0 -2 -0 -29 -9 -0 -0 -0 -0 -4 -2 -2 -0 -0 -1 -0 -1 -0 -0 -9
-113 -21 -11 -2 -0 -0 -2 -64 -75 -75 -2 -1 -17 -0 -0 -0 -0 -0 -0 -0 -9 -0 -0 -0 -0 -3 -5 -0 -1 -6 -1 -11 -16 -8 -12 -0 -0 -1 -1 -1 -0 -6 -0 -0 -13 -0 -1 -0 -1
-0 -0 -1 -9 -0 -0 -0 -0 -0 -68 -36 -51 -2 -0 -0 -0 -0 -0 -0 -0 -13 -0 -0 -0 -0 -1 -2 -0 -3 -24 -3 -4 -3 -33 -20 -3 -0 -0 -3 -1 -0 -5 -0 -17 -7 -3 -1 -1 -0
-0 -0 -0 -24 -9 -0 -0 -0 -0 -25 -66 -12 -15 -7 -0 -0 -0 -0 -0 -0 -0 -1 -0 -0 -0 -0 -0 -0 -0 -4 -2 -9 -19 -5 -1 -0 -0 -0 -5 -0 -1 -44 -10 -30 -1 -2 -3 -0 -5
-0 -0 -0 -20 -7 -5 -0 -1 -0 -0 -36 -26 -76 -5 -0 -0 -2 -0 -0 -1 -0 -0 -0 -0 -0 -0 -1 -0 -4 -23 -15 -22 -23 -2 -0 -0 -0 -0 -0 -1 -6 -16 -1 -0 -0 -31 -49 -0 -1
-0 -0 -0 -0 -0 -4 -5 -1 -1 -4 -5 -39 -36 -29 -0 -0 -0 -1 -0 -0 -0 -0 -0 -0 -0 -0 -0 -16 -0 -2 -11 -0 -0 -0 -0 -0 -0 -0 -0 -0 -3 -5 -3 -1 -0 -1 -5 -144 -0
-0 -0 -0 -0 -8 -1 -4 -0 -4 -0 -33 -8 -26 -9 -0 -1 -2 -8 -0 -0 -0 -0 -0 -0 -0 -0 -0 -2 -5 -0 -0 -1 -0 -2 -0 -0 -0 -1 -0 -0 -0 -1 -1 -9 -1 -1 -2 -7 -26
-0 -0 -0 -0 -0 -0 -0 -0 -0 -1 -9 -23 -6 -5 -0 -4 -3 -3 -1 -0 -1 -0 -0 -0 -0 -0 -0 -0 -0 -0 -0 -15 -5 -23 -16 -0 -0 -0 -0 -0 -0 -0 -4 -3 -6 -4 -0 -2 -8
-0 -0 -0 -0 -0 -11 -0 -0 -0 -11 -1 -0 -9 -0 -9 -3 -11 -0 -1 -1 -0 -0 -0 -0 -0 -0 -0 -0 -0 -0 -4 -5 -54 -0 -1 -0 -0 -0 -0 -0 -0 -0 -0 -1 -0 -0 -0 -1 -3
-0 -0 -0 -0 -0 -0 -7 -0 -0 -53 -0 -1 -0 -0 -10 -2 -3 -1 -1 -1 -1 -0 -0 -0 -0 -0 -0 -0 -0 -0 -0 -0 -0 -0 -0 -1 -8 -42 -8 -0 -0 -0 -0 -0 -0 -0 -0 -0 -0
-0 -0 -0 -0 -0 -10 -0 -0 -2 -179 -0 -0 -0 -0 -0 -2 -8 -6 -3 -2 -1 -6 -0 -1 -0 -0 -0 -0 -0 -0 -0 -0 -0 -0 -0 -0 -0 -0 -3 -0 -0 -0 -0 -0 -0 -0 -0 -0 -0
-0 -0 -0 -0 -0 -0 -10 -24 -0 -36 -19 -0 -0 -0 -11 -7 -4 -1 -6 -0 -1 -3 -1 -0 -0 -0 -0 -0 -0 -0 -0 -0 -0 -2 -2 -0 -0 -0 -0 -0 -0 -0 -0 -0 -0 -0 -0 -1 -0
-0 -39 -0 -0 -0 -0 -0 -1 -0 -51 -17 -21 -0 -1 -15 -11 -4 -8 -9 -20 -0 -0 -0 -0 -0 -0 -0 -0 -0 -0 -0 -0 -0 -2 -0 -0 -4 -0 -0 -0 -0 -0 -0 -0 -0 -0 -0 -0 -0
-1 -0 -28 -3 -9 -7 -0 -6 -150 -0 -19 -2 -3 -2 -1 -17 -2 -4 -120 -16 -1 -0 -0 -0 -0 -0 -0 -0 -0 -0 -0 -0 -0 -0 -1 -0 -0 -0 -0 -0 -0 -0 -0 -0 -0 -2 -2 -0 -0
-0 -3 -25 -0 -2 -49 -23 -45 -209 -0 -5 -11 -23 -13 -8 -1 -15 -34 -21 -9 -17 -0 -1 -0 -0 -0 -0 -0 -0 -0 -0 -0 -0 -0 -0 -0 -0 -0 -0 -0 -0 -0 -0 -0 -0 -0 -0 -4 -0
Wind_Speed
11 15 9 5 6 6 10 12 8 8 8 14 3 12 16 18 11 13 19 17 19 12 15 13 11 13 13 11 7 12 13 14 13 13 14 13 13 15 14 15 14 13 12 14 14 15 15 14 14
15 3 6 7 3 4 8 6 11 11 11 7 11 9 17 17 19 19 18 17 17 14 14 16 11 13 12 13 10 12 14 12 13 13 13 13 14 15 14 14 12 12 11 11 14 14 15 15 15
17 3 8 6 2 10 10 10 12 10 9 6 6 13 11 17 16 16 24 18 16 18 15 15 13 13 13 12 12 13 12 13 13 13 13 13 13 15 14 13 13 13 14 13 13 14 16 15 15
7 7 5 4 4 10 14 12 11 8 6 4 15 13 18 13 12 19 22 21 17 20 17 16 13 13 12 13 12 12 13 12 13 13 12 12 14 14 14 12 13 13 14 14 16 16 15 15 13
9 8 6 5 7 7 13 11 9 7 7 4 13 18 13 9 17 17 15 15 14 14 20 16 12 12 11 12 12 12 12 12 14 13 12 12 12 13 12 12 12 13 14 14 16 15 14 12 12
6 4 5 3 8 12 12 7 7 5 7 6 16 15 13 14 16 15 14 14 10 10 19 14 11 11 11 11 11 12 12 12 13 11 11 11 11 11 10 12 12 13 14 15 14 14 13 12 11
10 3 5 4 11 12 9 2 13 6 8 11 14 15 13 16 14 14 9 10 10 11 14 14 14 12 11 11 12 12 12 11 12 12 12 13 11 10 10 11 11 12 13 12 11 10 10 10 10
6 8 1 3 8 13 9 7 4 4 13 11 6 12 16 17 14 12 11 10 14 7 12 6 16 14 15 13 12 13 13 12 12 11 11 13 11 10 10 10 10 11 10 10 10 8 9 9 8
5 4 6 7 14 13 4 8 8 3 10 6 3 14 20 18 14 13 11 13 11 13 6 11 6 12 9 14 11 13 14 15 15 11 9 12 10 10 10 12 9 8 8 7 6 5 7 9 9
4 4 3 7 10 12 4 3 5 8 10 9 12 20 19 17 15 14 13 13 13 11 17 11 11 13 10 11 9 11 12 9 8 8 6 5 9 9 10 9 6 6 6 7 7 10 11 12 8
3 2 6 9 10 6 4 6 5 5 3 12 15 17 19 16 14 13 13 12 15 11 15 14 10 6 8 11 10 7 7 7 7 7 6 8 7 8 7 6 6 6 11 8 10 11 8 6 2
5 1 1 9 7 4 4 12 5 5 12 5 17 18 16 16 14 14 13 12 15 11 12 14 12 6 6 8 7 6 6 9 8 7 7 4 5 6 1 3 4 4 4 3 5 7 4 4 4
12 9 3 7 10 7 12 17 6 6 5 14 17 16 16 14 12 11 12 13 13 13 13 13 14 4 1 5 2 6 7 6 10 9 5 4 7 4 4 2 2 2 4 4 2 4 2 5 6
5 9 4 6 6 7 15 10 21 9 1 15 16 15 14 12 11 11 12 12 14 13 12 14 15 5 8 4 5 5 5 6 6 4 6 2 5 2 6 5 6 4 1 3 4 3 2 7 6
8 8 8 4 4 7 9 7 6 10 13 14 14 13 13 12 14 11 13 13 13 12 12 13 14 11 9 9 7 7 5 7 6 8 6 4 4 3 2 3 1 4 4 1 2 5 3 4 6
13 10 9 8 6 7 5 7 7 7 12 15 13 13 12 12 14 13 12 13 13 13 12 13 12 14 10 10 8 5 4 5 4 2 9 7 4 3 6 7 3 5 5 5 4 7 4 4 5
8 9 6 9 5 8 11 4 7 13 4 10 9 13 14 14 11 13 13 13 14 14 13 13 11 9 7 10 4 2 6 1 9 1 5 6 5 4 6 2 6 6 4 6 2 3 4 2 5
9 8 4 6 8 9 13 7 12 9 11 4 15 13 15 18 16 13 14 13 14 15 13 12 10 11 9 7 3 3 6 5 6 3 6 7 5 4 7 6 2 7 3 3 3 6 2 3 3
6 6 5 12 3 5 10 15 13 14 11 15 13 13 17 16 17 15 13 14 14 14 14 13 12 11 8 9 7 6 5 2 3 6 7 4 5 4 4 4 5 4 3 4 2 4 6 3 2
10 9 8 5 4 7 6 11 10 18 18 18 16 15 17 16 17 17 15 16 16 15 15 14 12 12 8 7 1 1 4 2 4 5 7 6 5 4 4 5 4 3 4 3 2 8 8 3 2
13 12 6 0 6 10 9 15 17 16 18 18 14 12 17 20 19 19 17 17 17 16 16 15 13 13 11 5 6 2 3 3 3 7 7 7 6 6 4 4 6 2 7 7 2 4 6 3 5
13 11 8 3 7 5 7 8 14 18 17 19 20 14 19 16 21 19 19 17 17 17 15 16 14 14 12 10 7 6 6 6 5 5 5 6 6 6 6 4 4 3 6 6 2 2 8 8 5
12 7 6 9 12 12 10 8 13 17 16 19 22 22 20 23 18 20 20 18 18 17 16 16 15 12 11 11 6 9 9 4 6 3 7 3 4 6 6 5 4 3 5 4 4 3 3 7 6
8 4 12 9 10 11 18 14 11 4 12 15 20 21 18 26 22 18 20 20 14 17 15 16 15 13 12 11 12 11 6 5 5 6 5 7 8 9 7 7 4 4 5 3 5 4 4 5 6
12 14 9 12 11 14 8 8 7 13 19 11 21 23 23 19 23 20 18 19 17 17 17 15 16 14 14 14 14 11 9 7 6 6 7 4 3 4 10 8 5 6 7 5 5 3 6 4 5
14 16 13 8 8 8 8 7 4 9 10 4 11 22 22 19 23 23 19 18 19 14 18 16 17 15 16 15 13 10 10 8 9 10 6 6 7 5 6 5 7 8 7 7 6 6 7 7 6
11 15 19 19 17 15 12 17 8 12 15 4 9 13 17 23 20 18 18 20 21 18 16 17 16 16 16 16 13 11 11 10 8 3 8 6 6 5 6 9 9 9 9 9 7 7 6 6 4
18 5 9 9 16 14 9 11 3 7 10 12 5 16 20 20 19 17 16 18 19 18 17 17 17 17 16 16 14 13 12 11 10 7 8 7 5 7 6 8 9 10 10 9 8 8 9 7 7
12 12 13 12 12 8 14 6 10 11 13 8 4 1 16 15 14 18 10 14 20 18 17 16 16 16 15 15 13 12 13 13 12 10 9 9 7 7 8 9 9 10 9 9 8 9 11 5 5
7 12 22 11 10 7 16 3 12 14 11 12 13 4 6 12 13 10 10 14 15 20 17 18 16 16 15 14 11 13 11 11 12 11 10 8 10 8 9 9 9 8 9 9 9 11 11 6 9
Wind_Direction
239 226 254 256 253 219 104 86 104 103 86 70 44 61 63 27 42 90 129 110 103 118 118 112 111 110 108 108 136 123 112 108 108 107 98 100 99 100 95 92 95 97 93 95 92 96 100 106 104
242 324 242 279 273 112 85 102 91 62 82 72 72 348 74 70 92 117 117 122 127 132 148 116 109 119 118 134 139 120 113 109 109 106 108 106 94 100 98 93 89 90 94 98 94 93 93 93 95
255 228 258 274 132 64 105 91 90 97 135 138 74 38 51 98 111 127 115 148 145 153 128 114 118 120 122 123 124 117 110 112 111 107 103 101 96 100 99 93 89 89 93 100 96 86 92 90 90
224 193 222 268 70 40 92 97 101 120 93 1 106 84 101 102 114 120 140 157 153 118 107 114 115 113 116 117 113 110 111 113 111 109 99 104 99 104 98 97 90 93 97 95 94 92 90 92 95
241 244 248 243 89 99 82 89 104 144 81 129 112 118 109 85 109 133 143 149 151 142 115 114 112 113 115 113 114 113 110 103 100 94 96 97 100 103 104 102 89 84 106 94 89 88 91 93 92
269 215 277 170 144 102 97 118 135 98 85 117 94 129 108 120 137 142 166 136 147 120 112 126 120 117 116 112 115 118 113 110 102 102 96 104 98 102 109 105 95 88 102 99 95 94 96 98 95
260 303 250 204 132 117 103 119 100 140 139 123 145 122 130 146 138 150 155 127 129 115 109 136 130 122 115 118 117 113 115 112 106 110 107 105 109 110 115 108 103 94 100 101 99 105 103 98 99
297 286 154 303 134 120 116 70 82 85 64 100 154 129 155 137 152 146 143 132 97 179 93 84 134 144 143 133 118 112 113 118 117 118 125 120 115 120 126 124 101 100 106 108 103 113 125 124 127
260 291 317 10 104 112 94 129 71 65 138 151 44 137 129 142 152 159 153 143 151 127 163 116 134 99 96 127 124 128 126 126 129 138 156 174 132 141 142 78 109 112 115 114 127 150 166 170 172
310 297 134 67 81 78 200 189 127 162 120 139 100 97 129 151 165 155 163 148 156 159 135 208 116 139 164 124 142 153 152 153 127 109 150 139 71 63 89 99 113 126 140 158 175 208 214 202 181
264 340 89 113 97 59 331 236 146 202 85 143 134 137 147 160 171 157 171 159 151 160 142 115 135 131 156 124 167 183 150 127 114 151 159 114 141 157 134 137 161 162 195 192 199 201 225 354 2
68 73 42 121 135 103 329 318 157 124 197 140 135 144 152 173 169 164 159 163 131 153 131 129 133 139 150 153 180 152 136 134 146 110 116 157 133 87 94 110 105 214 118 168 271 78 54 119 292
129 146 192 157 158 156 212 243 13 206 110 123 139 152 165 169 157 157 145 135 140 157 152 138 112 77 233 175 119 114 127 146 110 171 162 134 103 100 133 146 190 355 176 121 128 90 112 141 136
239 125 147 161 205 197 199 246 186 148 214 133 151 160 167 151 147 147 149 153 153 160 157 130 135 165 152 97 62 128 184 109 145 117 134 25 97 192 142 185 167 147 8 102 133 30 231 125 112
115 154 150 154 225 214 215 239 195 172 193 154 168 172 157 156 131 158 154 159 162 161 149 148 146 167 160 136 157 202 166 156 143 117 131 116 142 155 111 113 237 102 74 331 143 224 253 110 101
222 195 168 129 167 151 190 202 26 280 184 167 178 171 167 154 150 147 162 163 152 153 150 174 167 148 162 131 197 183 157 122 36 128 140 155 131 151 242 190 170 107 218 205 184 225 207 146 145
194 255 155 130 193 150 214 128 243 318 255 185 212 172 176 157 158 151 157 166 152 144 160 183 158 143 154 161 171 171 111 62 177 162 135 152 164 164 283 185 103 224 195 201 193 183 167 154 148
219 208 151 144 144 200 206 199 165 205 262 276 183 218 186 170 172 164 157 159 163 148 164 175 174 139 151 160 232 93 183 202 162 149 88 148 145 165 257 93 167 256 197 93 52 17 53 260 226
306 20 309 92 132 232 219 211 193 198 227 225 252 213 185 193 167 160 171 154 161 161 168 170 179 149 175 165 183 161 204 156 115 140 133 150 157 149 253 148 207 336 89 273 113 178 197 263 115
228 224 214 100 163 245 242 257 216 190 207 233 185 226 198 189 172 163 180 162 168 167 169 171 176 162 198 193 171 48 185 214 192 122 149 199 166 147 198 333 231 81 100 41 314 52 287 127 138
237 252 238 267 152 237 262 258 218 202 203 216 238 234 202 188 187 171 183 175 168 169 176 175 179 165 199 272 185 199 46 155 143 146 178 190 197 190 265 189 303 1 300 128 262 335 316 4 137
248 201 270 283 228 280 215 298 185 198 209 210 215 209 205 216 194 173 181 189 177 165 185 174 183 179 192 208 197 174 215 199 181 187 105 156 202 213 192 200 217 234 309 18 226 214 317 342 315
267 20 278 227 255 271 226 243 275 183 196 208 214 217 204 210 231 180 181 188 179 168 177 183 188 186 196 201 197 177 217 146 201 104 135 240 176 252 227 184 198 231 249 174 296 318 293 308 315
275 245 245 246 243 252 247 220 261 217 205 197 202 202 225 191 223 204 180 181 185 172 173 181 182 190 198 189 193 215 213 237 72 189 175 179 194 189 215 194 213 231 269 244 253 240 254 297 331
228 224 221 214 210 239 137 238 266 187 187 196 188 195 207 222 203 221 198 178 173 187 168 180 178 193 195 187 195 201 217 204 188 198 217 188 185 298 158 197 211 221 213 267 259 240 285 265 281
211 245 252 230 265 69 346 248 137 8 331 337 184 187 198 226 195 220 200 182 171 191 173 187 174 190 192 188 197 200 207 208 218 187 242 204 228 234 161 191 234 212 249 229 222 239 238 230 233
230 212 264 289 283 264 167 217 94 66 9 353 189 156 192 208 220 217 196 194 169 173 181 186 178 189 196 198 192 197 202 232 217 265 198 214 228 249 234 238 223 226 225 234 233 241 251 255 242
265 31 270 231 266 269 261 286 67 74 357 329 196 176 176 215 214 199 206 194 176 179 182 189 185 190 195 203 196 201 208 203 229 221 199 246 223 223 237 229 232 231 235 222 219 249 218 225 253
195 213 213 217 281 318 287 109 135 354 24 329 105 245 182 193 243 239 171 201 177 177 186 189 188 185 194 201 195 204 204 201 205 228 194 223 245 215 229 230 226 224 226 230 235 256 287 235 240
176 210 275 276 195 187 238 38 0 333 40 1 132 85 340 179 229 270 225 223 169 171 193 181 191 188 192 193 204 195 206 218 205 211 227 197 223 216 218 228 229 223 221 220 219 231 246 236 247